STARLINK-1283, 45389

Orbit data source: Space-Track

STARLINK-1283, 45389 is a payload satellite owned by SpaceX/Seattle (US) in LEO that was launched on Wed, 18 Mar 2020 UTC via an FALCON 9 launch vehicle from the Air Force Eastern Test Range (AFETR). Payload-class satellites include a variety of spacecraft equipped with specific instruments for various scientific and technological missions. These include communications satellites like Starlink; space stations such as the ISS; scientific satellites like the Hubble; Earth observation satellites from companies like Planet Labs, Umbra, and HawkEye 360; GPS; miniature CubeSats for education and research; and military/defense satellites.

Loading next visibility...
Identifier
45389, 2020-019AF
Orbit
LEO
Country
Flag of USUS
Related business
Manufacturer
SpaceX/Seattle
Mission
Partially operational Commercial Communications
Bus & Motor
STARLINK, Unknown motor
Mass
260 kg wet, ~248 kg dry
Launch date (UTC)
2020-03-18 (7 years ago)
Launch vehicle
FALCON 9
Launch site
Air Force Eastern Test Range (AFETR)
Object type
Payload
Rocket body
Debris
Shape & HBR
Box + 1 Pan, 10.1 m
Radar Cross Section
13.562 m², Large (>1 m²)

Expand to show TLE details & history
Last TLE update: 5 hours ago

TLE from 5 hours ago
0 STARLINK-1283
1 45389U 20019AF  26264.00002315  .00110914  15572-4  37375-3 0  9990
2 45389  53.0262 219.6684 0005298  85.4256 139.6050 15.89920510  6032
Epoch: 2026-09-21T00:00Z
TLE epoch observation values (Epoch: 2026-09-21T00:00:02.000Z)
Latitude
-34.65755°
Longitude
70.94047°
Altitude
316.168 km
Speed
7.717 km/s
True Right ascension
04h 43m 20s
True Declination
-34° 29' 10"
Sunlit
Object was in daylight at epoch
Visualization orbit readout
Latitude
Unknown
Longitude
Unknown
Altitude
Unknown
Speed
Unknown
Apparent Right ascension
Unknown
Apparent Declination
Unknown
Sunlit
N/A
Visualization observer readout
Local Sidereal Time
22:06:41
Azimuth
Unknown
Elevation
Unknown
Doppler factor
Unknown
Orbital elements
Apogee altitude
306.33 km
Perigee altitude
299.251 km
Semi-major axis
6,680.928 km
Eccentricity
0.00053
Inclination
53.0262°
RAAN
219.6684°
Arg. of periapsis
85.4256°
True anomaly
139.64432°
Mean anomaly
139.605°
Eccentric anomaly
139.62466°
Mean motion
3.97455 °/min
Orbital period
90.58 mins
BSTAR
0.00037375
Loading maneuver chart data...
Computing Atmospheric mass density...

Documentation

Showing up to 5 results
|